Location: Unspecified
(50.1700°N, 6.8600°E)
Time: 01:33:35
(UTC+00:00)

FENGYUN 3A - Pass Details

Date: 24 January 2019
Orbit: 820 x 832 km, 98.4° (Epoch: 18 February)

Event Time Altitude Azimuth Distance (km) Brightness Sun altitude
Rises 06:07:53 0° 13° (NNE) 3,376 6.8 -11.1°
Reaches altitude 10° 06:10:14 10° 13° (NNE) 2,441 6.1 -10.7°
Maximum altitude 06:15:39 82° 287° (WNW) 844 3.6 -9.9°
Drops below altitude 10° 06:21:03 10° 201° (SSW) 2,431 6.1 -9.1°
Sets 06:23:24 0° 200° (SSW) 3,362 6.8 -8.7°
